When you browse on this site, cookies collect data to enhance your experience and personalize the content and advertising you see.
Visit our Privacy Policy to learn more. By continuing to use the site, you agree to this use of cookies and data.
  • In Hungary
  • List of Countries
  • For 7 days
  • Water Temperature
  • Satellite Maps
  • Weather Map
  • News
  • Weather Widgets
  • user-avatar
    Login

    Hourly Weather Ko Bulon Le

    Today, 22 February, Friday

    Time Temperature Precipitation Wind Pressure Humidity
    00:00 +28°C° 0 mm 5 mps 759 mmHg 84%
    01:00 +27°C° 0 mm 4 mps 758 mmHg 86%
    02:00 +27°C° 0 mm 4 mps 758 mmHg 88%
    03:00 +27°C° 0 mm 4 mps 758 mmHg 89%
    04:00 +27°C° 0 mm 4 mps 757 mmHg 90%
    05:00 +27°C° 0 mm 4 mps 758 mmHg 90%
    06:00 +27°C° 0 mm 5 mps 758 mmHg 90%
    07:00 +27°C° 0 mm 4 mps 758 mmHg 89%
    08:00 +29°C° 0 mm 4 mps 758 mmHg 79%
    09:00 +32°C° 0 mm 4 mps 758 mmHg 69%
    10:00 +34°C° 0 mm 4 mps 759 mmHg 59%
    11:00 +36°C° 0 mm 3 mps 758 mmHg 53%
    12:00 +37°C° 0 mm 2 mps 758 mmHg 47%
    13:00 +39°C° 0 mm 2 mps 758 mmHg 40%
    14:00 +38°C° 0 mm 3 mps 757 mmHg 42%
    15:00 +37°C° 0 mm 3 mps 757 mmHg 44%
    16:00 +37°C° 0 mm 4 mps 756 mmHg 46%
    17:00 +35°C° 0 mm 3 mps 756 mmHg 52%
    18:00 +33°C° 0 mm 3 mps 756 mmHg 58%
    19:00 +30°C° 0 mm 3 mps 756 mmHg 65%
    20:00 +30°C° 0 mm 4 mps 757 mmHg 71%
    21:00 +29°C° 0 mm 5 mps 757 mmHg 76%
    22:00 +28°C° 0 mm 6 mps 758 mmHg 81%
    23:00 +28°C° 0 mm 6 mps 758 mmHg 82%

    Tomorrow, 23 February, Saturday

    Time Temperature Precipitation Wind Pressure Humidity
    00:00 +28°C° 0 mm 6 mps 758 mmHg 82%
    01:00 +28°C° 0 mm 5 mps 758 mmHg 83%
    02:00 +27°C° 0 mm 5 mps 757 mmHg 84%
    03:00 +27°C° 0 mm 5 mps 757 mmHg 85%
    04:00 +27°C° 0 mm 5 mps 757 mmHg 86%
    05:00 +27°C° 0 mm 5 mps 757 mmHg 87%
    06:00 +27°C° 0 mm 6 mps 757 mmHg 87%
    07:00 +27°C° 0 mm 6 mps 757 mmHg 88%
    08:00 +29°C° 0 mm 6 mps 757 mmHg 77%
    09:00 +32°C° 0 mm 5 mps 758 mmHg 66%
    10:00 +34°C° 0 mm 5 mps 758 mmHg 55%
    11:00 +36°C° 0 mm 4 mps 758 mmHg 48%
    12:00 +37°C° 0 mm 4 mps 757 mmHg 41%
    13:00 +39°C° 0 mm 3 mps 757 mmHg 33%
    14:00 +39°C° 0 mm 3 mps 756 mmHg 33%
    15:00 +38°C° 0 mm 3 mps 756 mmHg 34%
    16:00 +38°C° 0 mm 4 mps 755 mmHg 34%
    17:00 +36°C° 0 mm 3 mps 755 mmHg 43%
    18:00 +33°C° 0 mm 3 mps 755 mmHg 53%
    19:00 +30°C° 0 mm 2 mps 755 mmHg 63%
    20:00 +29°C° 0 mm 3 mps 756 mmHg 69%
    21:00 +28°C° 0 mm 4 mps 757 mmHg 75%
    22:00 +27°C° 0 mm 5 mps 758 mmHg 81%
    23:00 +27°C° 0 mm 5 mps 758 mmHg 83%

    Day after tomorrow, 24 February, Sunday

    Time Temperature Precipitation Wind Pressure Humidity
    00:00 +27°C° 0 mm 5 mps 757 mmHg 84%
    01:00 +26°C° 0 mm 5 mps 757 mmHg 85%
    02:00 +26°C° 0 mm 5 mps 757 mmHg 86%
    03:00 +26°C° 0 mm 5 mps 757 mmHg 86%
    04:00 +26°C° 0 mm 5 mps 756 mmHg 87%
    05:00 +26°C° 0 mm 5 mps 756 mmHg 88%
    06:00 +26°C° 0 mm 5 mps 757 mmHg 88%
    07:00 +26°C° 0 mm 5 mps 757 mmHg 89%
    08:00 +28°C° 0 mm 4 mps 757 mmHg 77%
    09:00 +30°C° 0 mm 4 mps 758 mmHg 66%
    10:00 +34°C° 0 mm 3 mps 758 mmHg 54%
    11:00 +36°C° 0 mm 3 mps 758 mmHg 47%
    12:00 +38°C° 0 mm 2 mps 757 mmHg 39%
    13:00 +39°C° 0 mm 2 mps 757 mmHg 32%
    14:00 +39°C° 0 mm 2 mps 756 mmHg 32%
    15:00 +38°C° 0 mm 2 mps 755 mmHg 32%
    16:00 +38°C° 0 mm 2 mps 754 mmHg 32%
    17:00 +36°C° 0 mm 2 mps 755 mmHg 41%
    18:00 +32°C° 0 mm 2 mps 755 mmHg 51%
    19:00 +30°C° 0 mm 2 mps 755 mmHg 60%
    20:00 +29°C° 0 mm 3 mps 756 mmHg 66%
    21:00 +28°C° 0 mm 4 mps 757 mmHg 71%
    22:00 +27°C° 0 mm 5 mps 757 mmHg 77%
    23:00 +27°C° 0 mm 5 mps 757 mmHg 78%

    25 February, Monday

    Time Temperature Precipitation Wind Pressure Humidity
    00:00 +27°C° 0 mm 5 mps 757 mmHg 79%
    01:00 +27°C° 0 mm 4 mps 757 mmHg 80%
    02:00 +27°C° 0 mm 4 mps 757 mmHg 81%
    03:00 +27°C° 0 mm 4 mps 756 mmHg 81%
    04:00 +27°C° 0 mm 4 mps 756 mmHg 82%
    05:00 +27°C° 0 mm 4 mps 756 mmHg 82%
    06:00 +27°C° 0 mm 4 mps 757 mmHg 82%
    07:00 +26°C° 0 mm 4 mps 757 mmHg 83%
    08:00 +29°C° 0 mm 4 mps 758 mmHg 72%
    09:00 +32°C° 0 mm 4 mps 758 mmHg 60%
    10:00 +34°C° 0 mm 4 mps 759 mmHg 49%
    11:00 +36°C° 0 mm 3 mps 758 mmHg 43%
    12:00 +37°C° 0 mm 3 mps 757 mmHg 36%
    13:00 +39°C° 0 mm 2 mps 757 mmHg 29%
    14:00 +38°C° 0 mm 2 mps 756 mmHg 31%
    15:00 +38°C° 0 mm 2 mps 755 mmHg 32%
    16:00 +38°C° 0 mm 2 mps 754 mmHg 33%
    17:00 +35°C° 0 mm 3 mps 755 mmHg 43%
    18:00 +33°C° 0 mm 4 mps 755 mmHg 53%
    19:00 +30°C° 0 mm 5 mps 756 mmHg 63%
    20:00 +29°C° 0 mm 6 mps 756 mmHg 68%
    21:00 +28°C° 0 mm 6 mps 757 mmHg 72%
    22:00 +28°C° 0 mm 6 mps 758 mmHg 77%
    23:00 +27°C° 0 mm 6 mps 757 mmHg 78%

    26 February, Tuesday

    Time Temperature Precipitation Wind Pressure Humidity
    00:00 +27°C° 0 mm 7 mps 757 mmHg 78%
    01:00 +27°C° 0 mm 7 mps 757 mmHg 79%
    02:00 +27°C° 0 mm 7 mps 757 mmHg 80%
    03:00 +27°C° 0 mm 7 mps 756 mmHg 82%
    04:00 +26°C° 0 mm 7 mps 756 mmHg 83%
    05:00 +26°C° 0 mm 7 mps 756 mmHg 83%
    06:00 +26°C° 0 mm 7 mps 756 mmHg 84%
    07:00 +26°C° 0 mm 7 mps 757 mmHg 84%
    08:00 +28°C° 0 mm 7 mps 757 mmHg 74%
    09:00 +30°C° 0 mm 7 mps 758 mmHg 63%
    10:00 +33°C° 0 mm 7 mps 758 mmHg 53%
    11:00 +35°C° 0 mm 6 mps 758 mmHg 47%
    12:00 +36°C° 0 mm 5 mps 757 mmHg 40%
    13:00 +38°C° 0 mm 4 mps 756 mmHg 34%
    14:00 +38°C° 0 mm 3 mps 756 mmHg 34%
    15:00 +37°C° 0 mm 3 mps 755 mmHg 34%
    16:00 +37°C° 0 mm 2 mps 755 mmHg 34%
    17:00 +35°C° 0 mm 4 mps 755 mmHg 44%
    18:00 +32°C° 0 mm 5 mps 755 mmHg 55%
    19:00 +29°C° 0 mm 7 mps 756 mmHg 65%
    20:00 +28°C° 0 mm 7 mps 756 mmHg 68%
    21:00 +28°C° 0 mm 7 mps 757 mmHg 71%
    22:00 +27°C° 0 mm 7 mps 758 mmHg 74%
    23:00 +27°C° 0 mm 7 mps 757 mmHg 76%

    27 February, Wednesday

    Time Temperature Precipitation Wind Pressure Humidity
    00:00 +27°C° 0 mm 7 mps 757 mmHg 78%
    01:00 +26°C° 0 mm 7 mps 757 mmHg 80%
    02:00 +26°C° 0 mm 7 mps 756 mmHg 81%
    03:00 +26°C° 0 mm 7 mps 756 mmHg 82%
    04:00 +24°C° 0 mm 7 mps 756 mmHg 82%
    05:00 +24°C° 0 mm 7 mps 756 mmHg 81%
    06:00 +24°C° 0 mm 7 mps 756 mmHg 80%
    07:00 +24°C° 0 mm 7 mps 757 mmHg 79%
    08:00 +28°C° 0 mm 6 mps 757 mmHg 66%
    09:00 +30°C° 0 mm 5 mps 758 mmHg 53%
    10:00 +34°C° 0 mm 4 mps 758 mmHg 40%
    11:00 +36°C° 0 mm 4 mps 757 mmHg 34%
    12:00 +38°C° 0 mm 3 mps 757 mmHg 27%
    13:00 +39°C° 0 mm 2 mps 756 mmHg 21%
    14:00 +39°C° 0 mm 3 mps 756 mmHg 23%
    15:00 +40°C° 0 mm 4 mps 755 mmHg 25%
    16:00 +40°C° 0 mm 4 mps 754 mmHg 27%
    17:00 +36°C° 0 mm 3 mps 755 mmHg 38%
    18:00 +32°C° 0 mm 2 mps 755 mmHg 49%
    19:00 +29°C° 0 mm 1 mps 755 mmHg 59%
    20:00 +28°C° 0 mm 2 mps 756 mmHg 65%
    21:00 +27°C° 0 mm 4 mps 756 mmHg 71%
    22:00 +26°C° 0 mm 5 mps 757 mmHg 76%
    23:00 +26°C° 0 mm 4 mps 757 mmHg 80%
    Show more